Temperature
21 21 21 21 19 18 19 20 21 21 21 22 21 20 19 19 18 18 18 18 18 18 18 18 18 18 18 18 18 18 18 18 18 18 18 18 18 18 18 18 18 18 18 18 18 18 18 18 18
22 21 21 21 18 18 19 20 21 22 22 22 21 20 19 18 18 18 17 18 18 18 18 18 18 18 18 18 18 18 18 18 18 18 18 18 18 18 18 18 18 18 18 18 18 18 18 18 18
22 21 21 18 18 18 20 21 21 22 23 22 21 20 19 18 18 18 18 18 18 18 18 18 18 18 18 18 17 17 17 18 18 18 18 18 18 18 18 18 18 18 18 18 17 17 17 17 17
22 21 21 18 19 20 20 21 22 22 22 22 21 19 19 18 18 18 18 18 18 18 18 18 18 18 18 17 17 17 17 17 17 17 17 17 18 18 18 18 18 17 17 17 17 17 17 17 17
22 21 18 18 20 20 21 22 22 21 21 21 20 18 18 18 18 18 18 18 18 18 18 18 18 17 17 17 17 17 17 17 17 17 17 17 17 17 17 17 17 17 17 17 17 17 17 17 17
21 19 18 18 20 21 21 22 22 21 21 20 19 18 18 18 18 18 18 18 18 18 18 18 17 17 17 17 17 17 17 17 17 17 17 17 17 17 17 17 17 17 17 17 17 17 17 17 17
20 17 18 19 20 20 22 22 22 21 21 20 20 18 17 18 18 18 18 18 18 18 18 17 17 17 17 17 17 17 17 17 17 17 17 17 17 17 17 17 17 17 17 17 17 17 17 17 17
22 17 19 19 20 20 22 22 22 21 21 20 20 18 17 18 18 18 18 18 18 18 17 17 17 17 17 17 17 17 17 17 17 16 16 17 17 16 16 16 16 16 16 16 16 16 17 17 17
22 17 18 19 20 20 22 22 21 21 21 20 20 19 19 18 18 18 18 18 18 17 17 17 17 17 17 17 17 17 17 16 16 16 16 16 16 16 16 16 16 16 16 16 16 16 16 16 16
21 17 19 20 20 20 21 21 21 21 20 19 19 19 19 18 18 18 18 18 18 17 17 17 17 17 17 17 17 17 16 16 16 16 16 16 16 16 16 16 16 16 16 16 16 16 16 16 16
20 19 20 21 21 21 21 21 21 20 19 19 19 19 18 18 18 18 18 18 18 18 17 17 17 17 17 17 17 16 16 16 16 16 16 16 16 16 16 16 16 16 16 16 16 16 16 16 16
20 20 21 22 22 22 21 21 20 20 20 20 20 19 19 18 18 18 18 18 18 18 17 17 17 17 17 17 17 16 16 16 16 16 16 16 16 16 16 16 15 15 15 15 15 15 15 15 15
20 20 22 22 22 22 21 21 20 20 20 20 20 19 19 18 18 18 18 18 18 18 17 17 17 17 17 17 17 16 16 16 16 16 16 16 16 16 15 15 15 15 15 15 15 15 15 15 15
21 21 21 22 22 21 20 20 20 20 20 19 19 19 18 18 18 18 18 18 18 18 17 17 17 17 17 17 17 16 16 16 16 16 16 16 16 15 15 15 15 15 15 15 15 15 15 15 15
22 20 20 21 21 21 21 19 19 19 19 19 19 19 18 18 18 18 18 18 18 18 18 17 17 17 17 17 17 16 16 16 16 16 16 15 15 15 15 15 15 15 15 15 15 15 15 15 15
20 19 19 20 21 21 20 18 18 19 19 19 19 19 18 18 18 18 18 18 18 18 18 17 17 17 17 17 17 16 16 16 16 15 15 15 15 15 15 15 15 14 14 14 14 14 14 14 14
18 18 18 19 21 20 19 18 18 19 19 18 18 18 19 18 18 18 18 18 18 18 18 17 17 17 17 17 16 16 16 16 15 15 15 15 15 15 15 15 14 14 14 14 14 14 14 14 14
18 18 19 19 20 20 19 18 18 19 19 18 18 18 18 18 18 18 18 18 18 18 18 17 17 17 17 17 16 16 16 15 15 15 15 15 15 15 15 14 14 14 14 14 14 14 14 14 14
19 19 19 19 20 20 19 18 17 18 18 18 18 18 18 18 18 18 18 18 18 18 17 17 17 17 17 16 16 16 16 15 15 15 15 15 14 14 14 14 14 14 14 14 14 14 14 14 14
20 19 19 19 20 20 18 18 18 18 18 18 18 18 18 18 18 18 18 18 18 18 17 17 17 17 17 16 16 16 15 15 15 15 15 14 14 14 14 14 14 14 14 14 14 14 14 13 13
20 19 19 19 20 19 19 18 17 17 18 18 18 18 19 19 18 18 18 18 18 17 17 17 17 17 16 16 16 16 15 15 15 14 14 14 14 14 14 14 14 14 14 13 13 13 13 13 13
19 20 20 20 18 17 18 16 17 17 17 17 17 18 18 18 18 18 18 18 17 17 17 17 17 17 16 16 16 15 15 15 15 14 14 14 14 14 14 14 14 14 13 13 13 13 13 13 13
20 21 20 20 18 17 17 16 16 16 16 17 17 17 18 18 18 18 18 18 17 17 17 17 17 16 16 16 16 15 15 15 15 14 14 14 14 14 14 14 14 13 13 13 13 13 13 13 13
20 19 18 16 16 16 17 16 16 15 16 17 17 17 18 18 18 18 18 17 17 17 17 16 16 16 16 15 15 15 15 15 14 14 14 14 14 14 14 14 13 13 13 13 13 13 13 13 13
18 16 16 16 15 15 17 16 16 17 17 17 17 17 18 18 18 18 17 17 17 17 16 16 16 16 16 15 15 15 15 15 14 14 14 14 14 14 13 13 13 13 13 13 13 13 13 13 13
18 16 16 16 16 15 17 16 17 17 18 18 18 18 17 17 17 17 17 17 17 16 16 16 16 15 15 15 15 15 15 14 14 14 14 14 14 14 13 13 13 13 13 13 13 13 13 13 13
18 16 16 15 16 15 15 16 17 17 17 17 17 17 17 17 17 17 17 17 16 16 16 16 16 15 15 15 15 15 14 14 14 14 14 14 14 14 13 13 13 13 13 13 13 13 13 13 12
18 17 15 15 15 15 16 16 15 17 16 16 16 16 16 16 17 17 17 17 16 16 16 15 15 15 15 15 15 14 14 14 14 14 14 14 13 13 13 13 13 13 13 13 13 13 12 12 12
18 18 16 14 14 15 15 15 17 16 16 16 16 16 17 17 17 17 17 16 16 16 15 15 15 15 15 15 14 14 14 14 13 13 13 13 13 13 13 13 13 13 13 13 13 12 12 12 12
18 17 15 15 15 14 14 15 17 16 16 16 16 17 17 17 17 17 16 16 16 15 15 15 15 14 14 14 14 14 13 13 13 13 13 13 13 13 13 13 13 13 13 12 12 12 12 12 12
Wind_Speed
4 3 2 3 5 6 3 1 2 3 5 5 9 11 9 6 4 5 2 6 7 4 5 6 8 9 9 10 11 11 12 12 13 13 14 14 14 13 13 14 14 14 14 14 14 13 13 12 11
2 1 3 4 5 4 1 0 5 4 6 7 8 9 8 6 5 6 3 6 7 7 6 7 9 9 10 11 11 12 12 13 13 13 13 14 14 13 13 13 14 14 14 14 13 13 12 12 11
2 0 4 4 4 4 3 2 5 5 6 6 6 6 6 5 4 3 5 8 7 6 7 8 9 10 10 11 11 12 12 12 13 13 14 14 14 13 13 13 14 15 15 14 13 12 12 11 11
2 4 5 6 4 2 5 4 5 6 6 6 7 6 5 3 3 5 9 9 8 6 7 8 9 10 10 10 11 12 12 12 13 13 14 14 14 13 12 13 14 14 14 14 14 13 12 11 11
4 4 6 4 2 0 2 3 4 6 4 5 8 7 4 3 7 9 9 8 8 5 6 8 9 9 9 10 11 12 12 12 12 13 14 14 14 14 14 15 15 14 14 13 13 12 12 11 11
4 4 5 3 1 1 1 3 6 7 6 6 7 6 3 3 7 8 9 7 7 6 5 7 8 8 9 10 10 11 12 12 12 13 13 13 13 14 14 14 14 14 13 13 12 11 11 11 11
4 4 4 3 2 2 1 3 6 6 5 4 5 6 4 2 4 7 8 7 6 6 5 4 5 7 8 9 10 10 11 12 12 12 12 12 12 13 12 13 13 13 12 12 11 11 11 11 12
5 5 3 2 3 1 0 3 4 5 4 4 5 8 6 5 5 7 7 6 6 5 4 3 4 6 6 7 9 10 11 11 11 11 11 12 12 12 12 12 12 12 12 12 11 11 11 11 11
4 5 2 2 3 2 1 5 3 4 6 4 4 5 7 9 8 8 6 5 4 4 3 3 3 4 5 7 8 8 9 9 9 9 10 10 9 9 9 10 12 11 11 11 11 11 11 11 11
5 4 3 3 4 3 2 4 3 4 6 5 6 7 9 8 8 8 7 6 5 4 3 2 3 4 4 5 6 6 6 7 7 7 8 7 7 7 8 10 11 11 11 12 12 11 10 9 8
4 5 3 2 2 3 3 2 2 6 4 6 10 11 10 8 8 8 6 5 5 5 5 3 3 4 4 4 5 4 4 5 6 7 7 7 6 7 7 7 8 9 10 9 10 9 7 7 6
4 2 3 3 2 3 2 2 3 4 4 7 11 13 10 9 8 7 6 5 4 5 4 5 4 4 3 4 4 4 3 4 4 5 7 6 4 4 4 4 5 6 6 6 7 6 7 8 8
4 2 3 4 4 3 4 3 3 2 5 8 10 11 9 8 6 6 6 5 5 5 5 5 5 4 4 3 3 4 3 3 4 4 6 7 4 3 3 3 4 5 6 6 5 5 6 6 7
4 3 2 3 2 1 4 2 3 3 7 9 10 9 8 8 7 6 5 5 5 5 5 5 5 4 4 3 3 3 3 4 4 3 5 7 6 4 3 3 3 4 5 6 5 5 5 5 5
4 4 2 1 2 2 4 2 2 5 7 9 9 8 7 6 6 7 7 7 6 6 6 6 6 5 5 4 3 4 4 5 4 3 5 7 7 6 5 3 3 3 6 7 6 6 5 5 5
3 3 1 4 3 3 5 2 3 5 8 7 7 7 7 6 6 6 7 6 7 6 6 5 6 6 5 4 3 4 4 5 4 4 5 6 7 8 5 4 3 4 6 5 4 4 4 4 4
1 2 3 4 3 3 4 3 4 5 8 7 7 7 7 6 5 6 7 7 6 7 7 6 5 6 6 5 4 4 4 4 4 4 4 5 6 8 6 3 3 5 4 3 3 4 3 3 3
3 3 3 5 4 3 3 4 5 6 7 8 8 7 7 7 7 6 6 7 6 6 7 6 6 6 6 4 4 3 3 3 3 3 3 4 5 7 7 4 4 5 4 3 3 4 3 2 2
4 3 3 5 3 3 4 5 6 7 6 7 7 7 8 8 7 5 5 6 5 5 6 5 6 5 5 4 4 3 2 2 2 2 3 5 5 6 6 4 3 3 3 3 3 3 3 3 2
2 2 1 2 2 3 4 5 5 7 8 8 8 8 9 7 5 5 5 5 5 6 5 6 6 6 6 4 4 3 3 2 2 1 2 4 5 5 6 4 3 3 3 3 3 3 2 1 2
1 4 4 3 2 1 1 4 3 4 4 4 6 7 7 9 9 7 6 5 5 5 6 6 6 6 6 5 4 4 3 2 2 1 0 0 3 4 5 5 4 3 3 3 2 2 3 1 1
3 4 4 3 1 3 2 2 5 4 3 5 5 5 6 7 8 8 7 7 6 6 6 6 6 6 6 6 6 6 4 3 3 2 1 1 1 3 4 4 4 3 3 3 2 2 2 3 1
4 3 2 2 2 2 1 3 6 2 4 6 6 6 7 8 8 8 7 8 7 6 6 6 6 5 5 6 6 6 4 2 2 2 2 1 0 1 2 3 3 3 2 3 2 2 2 2 2
1 3 4 3 3 2 5 5 5 5 7 6 6 6 7 7 7 6 5 5 4 4 5 5 6 5 5 6 6 6 6 4 3 2 2 2 1 0 1 2 3 3 3 3 3 2 3 2 2
4 5 3 3 2 5 3 4 7 6 6 7 8 7 6 7 7 6 6 5 5 5 5 6 6 5 5 5 5 5 6 6 6 5 4 3 2 1 2 2 3 3 3 3 3 2 2 2 2
2 7 6 4 4 4 2 4 5 4 3 5 7 7 7 6 7 7 7 6 6 5 5 6 6 5 5 5 5 5 5 4 4 4 4 4 3 3 3 3 3 3 3 3 3 2 2 2 2
3 3 6 5 2 1 3 3 4 1 1 3 5 6 7 7 7 7 6 6 6 6 5 6 6 5 5 5 5 5 4 4 4 4 4 3 3 3 3 3 3 3 3 3 3 2 2 2 2
4 5 5 3 2 2 4 4 5 6 5 4 4 6 6 6 6 5 6 6 6 6 5 5 5 6 5 4 5 5 4 4 4 4 3 3 2 3 3 3 3 3 3 3 3 2 2 2 2
2 3 4 4 4 4 3 6 5 8 7 7 7 7 8 8 7 6 5 5 5 5 5 4 4 3 3 3 3 4 3 3 3 3 3 3 2 3 3 3 3 3 3 2 2 2 2 2 2
5 5 6 4 4 4 3 7 4 5 5 7 7 6 6 7 7 6 6 5 5 5 4 4 4 3 3 3 3 3 3 3 3 3 2 3 2 2 2 2 3 3 3 3 3 3 3 3 2
Wind_Direction
309 318 82 56 56 56 58 359 122 66 57 58 76 84 85 68 87 123 186 136 129 125 100 86 85 84 85 85 83 79 77 76 76 76 75 77 79 82 85 88 92 94 95 95 97 98 98 97 96
331 340 65 58 80 81 23 27 93 98 133 119 82 76 76 70 78 108 122 133 126 121 103 92 88 88 90 91 89 84 81 79 79 79 79 80 81 81 83 88 91 93 94 95 96 98 97 96 93
311 91 75 67 92 139 151 165 119 106 104 98 80 58 71 94 100 122 142 135 118 111 105 97 92 90 90 94 93 90 86 84 82 80 80 80 81 82 85 90 93 93 93 93 93 95 95 93 92
50 46 56 73 89 170 166 180 134 107 67 62 95 70 60 67 119 132 132 124 116 113 110 106 100 95 93 93 93 93 91 88 85 82 80 79 79 78 82 95 95 94 94 93 92 92 94 94 96
67 70 65 70 92 173 152 150 119 104 85 78 93 91 67 40 104 118 123 120 122 124 115 113 108 102 98 97 97 94 93 90 86 83 80 80 82 80 84 94 94 93 93 92 90 88 88 91 94
56 69 87 102 105 75 80 108 99 96 103 100 97 101 98 109 112 125 129 124 124 127 121 118 112 107 104 105 104 100 96 92 89 88 82 82 84 85 86 90 90 91 91 90 88 87 86 83 86
99 91 119 135 114 75 126 107 103 112 109 108 115 103 121 143 137 132 129 127 123 123 112 107 115 114 110 109 106 104 101 96 93 92 88 86 87 87 89 90 91 90 88 85 84 86 86 83 84
122 98 88 113 126 126 345 90 103 101 101 104 104 127 155 188 149 118 114 117 117 113 112 107 105 109 110 111 109 106 104 100 95 92 89 86 87 86 86 87 88 87 83 79 80 84 86 83 84
89 82 120 163 150 164 74 83 62 76 95 79 85 132 156 156 124 107 102 96 108 115 119 118 106 112 115 115 109 101 97 96 94 91 90 85 79 78 80 82 81 81 77 74 76 78 84 83 82
85 117 187 187 163 148 92 96 120 91 83 80 80 96 124 127 119 124 130 127 130 138 144 141 123 118 118 117 107 95 87 86 84 85 88 86 81 75 76 71 68 69 69 68 68 69 72 73 74
109 148 153 118 132 128 104 76 84 118 118 153 146 144 140 129 131 137 146 147 154 155 142 140 141 131 123 110 113 101 90 84 79 83 91 87 78 74 70 64 57 54 58 56 57 59 61 69 78
104 117 133 131 107 102 102 94 74 115 172 164 150 148 144 143 152 155 158 158 150 143 142 143 142 134 124 117 114 109 105 96 91 90 95 92 84 77 73 67 59 54 55 57 57 60 65 71 78
100 118 109 115 96 96 87 88 105 109 132 135 137 140 148 152 159 166 166 157 146 141 144 147 145 143 135 121 120 108 105 106 103 93 95 99 97 95 84 70 63 59 60 61 63 64 65 65 73
152 135 114 120 113 111 102 84 101 149 132 132 137 144 151 156 162 161 155 159 160 151 148 146 137 138 129 130 127 116 118 112 99 90 98 106 106 105 96 82 67 61 65 67 72 72 70 65 72
111 100 48 238 176 170 107 42 155 168 140 142 149 155 158 167 162 168 171 167 165 159 153 148 145 134 129 132 130 116 114 113 106 99 103 107 109 109 103 94 75 71 74 74 72 67 67 66 66
74 90 184 251 195 178 125 221 229 172 149 158 164 168 169 179 181 180 172 170 166 155 151 154 146 137 135 131 123 115 110 110 106 102 103 104 108 109 105 104 91 87 84 79 75 64 64 59 60
51 174 211 251 213 166 155 204 213 182 162 171 178 179 177 184 192 188 177 169 168 161 153 147 141 141 139 136 127 111 108 104 97 97 99 107 112 112 109 107 99 91 83 71 78 67 77 72 63
215 192 198 216 221 159 178 209 205 199 174 180 184 181 182 188 200 186 173 168 159 159 152 148 139 138 133 123 106 90 91 89 86 91 99 111 115 116 111 107 95 92 83 66 68 74 62 74 71
178 169 198 229 219 171 207 218 209 204 193 192 189 187 192 199 201 175 156 151 145 150 149 150 143 144 136 125 123 119 126 120 96 91 105 113 119 117 112 111 106 99 96 96 95 88 66 49 59
137 144 197 266 232 192 212 242 221 202 203 197 192 191 193 195 186 169 157 149 153 156 153 151 155 152 149 148 145 144 139 131 125 92 85 114 125 125 124 124 122 114 103 90 87 90 83 47 56
215 187 201 220 309 341 147 304 265 234 207 199 197 193 187 184 180 173 165 163 163 160 164 164 163 155 150 141 121 105 85 72 72 84 82 106 134 137 135 135 132 126 129 130 129 116 114 116 0
241 221 192 186 116 273 164 253 275 229 204 214 215 197 193 186 177 176 172 169 175 176 170 161 162 156 151 139 134 139 145 156 188 187 186 183 133 138 141 147 143 144 142 147 159 135 127 127 123
223 228 206 209 180 281 249 180 275 230 213 230 221 204 199 188 178 178 179 176 178 172 165 163 152 151 154 150 149 150 150 165 163 147 149 155 123 122 146 154 145 154 155 161 159 140 137 141 156
157 39 29 46 78 276 232 178 261 228 214 212 210 199 189 184 173 167 159 148 156 153 148 150 145 147 156 157 156 156 158 161 150 156 165 174 160 143 166 158 149 159 163 172 176 169 162 166 156
75 80 34 6 355 254 236 173 239 236 214 193 187 187 179 169 160 150 144 144 148 151 158 155 152 157 164 162 166 168 172 171 172 180 185 180 178 185 205 181 172 169 173 172 163 161 177 176 164
172 139 155 192 227 274 321 218 247 242 209 181 173 169 164 166 168 163 162 160 161 163 165 162 160 164 169 171 176 175 175 175 183 184 180 189 197 200 196 183 179 177 166 162 160 160 187 184 187
143 170 173 152 222 257 279 283 305 244 149 141 155 153 166 174 176 175 168 164 164 164 166 169 167 167 175 182 178 172 178 180 185 184 176 184 195 193 183 171 173 169 164 165 164 168 190 180 197
159 153 99 121 176 254 275 246 231 223 211 190 180 174 177 174 176 177 172 170 170 168 164 158 162 171 173 178 183 181 189 188 182 172 176 184 192 187 172 174 175 179 180 174 163 172 191 176 210
174 153 130 138 166 171 246 262 226 204 200 193 193 183 178 177 180 180 179 174 168 157 151 148 154 151 157 173 176 166 174 171 159 161 181 184 186 173 166 183 190 182 187 183 169 188 178 179 209
185 183 151 161 229 187 199 263 280 195 194 185 181 177 177 178 178 174 170 162 159 157 156 156 158 157 166 166 156 157 155 147 154 173 179 174 179 182 175 176 186 183 183 187 183 195 188 184 203
Height
1501 1500 1500 1501 1504 1516 1520 1513 1508 1506 1506 1507 1506 1507 1511 1516 1520 1527 1524 1522 1522 1521 1521 1520 1519 1517 1516 1516 1515 1514 1513 1513 1512 1511 1510 1509 1508 1508 1507 1507 1508 1508 1509 1510 1511 1512 1513 1514 1514
1501 1500 1501 1502 1513 1527 1523 1512 1509 1506 1507 1507 1508 1510 1513 1517 1519 1521 1522 1523 1523 1522 1521 1520 1519 1518 1517 1517 1516 1515 1514 1514 1513 1512 1511 1510 1510 1509 1508 1508 1509 1509 1510 1512 1513 1513 1514 1515 1515
1501 1500 1502 1506 1517 1525 1520 1511 1508 1507 1507 1506 1510 1513 1516 1520 1521 1522 1522 1523 1523 1523 1522 1521 1520 1519 1518 1518 1517 1516 1515 1515 1514 1513 1512 1511 1510 1509 1507 1507 1509 1511 1512 1513 1514 1515 1515 1516 1516
1501 1502 1504 1512 1518 1514 1511 1509 1506 1507 1508 1509 1511 1516 1519 1522 1522 1523 1523 1524 1524 1523 1522 1521 1521 1520 1519 1518 1518 1517 1516 1516 1516 1515 1514 1513 1511 1509 1505 1506 1509 1512 1513 1514 1515 1516 1517 1517 1517
1501 1503 1511 1519 1516 1511 1507 1506 1506 1507 1509 1512 1512 1518 1522 1524 1523 1523 1524 1524 1524 1523 1523 1522 1521 1520 1519 1519 1519 1518 1517 1517 1517 1516 1515 1514 1513 1510 1506 1508 1511 1514 1515 1516 1517 1517 1518 1518 1519
1503 1505 1519 1524 1517 1511 1508 1507 1507 1509 1511 1513 1515 1519 1524 1525 1524 1525 1525 1525 1525 1524 1523 1522 1521 1520 1519 1519 1519 1519 1519 1518 1518 1518 1517 1517 1516 1514 1513 1514 1515 1516 1517 1517 1518 1519 1519 1520 1520
1504 1510 1518 1519 1517 1513 1509 1508 1508 1510 1512 1514 1515 1519 1524 1525 1526 1526 1526 1526 1526 1525 1524 1523 1521 1520 1519 1519 1519 1520 1520 1520 1520 1520 1520 1519 1518 1518 1517 1518 1518 1519 1519 1519 1520 1520 1520 1521 1521
1503 1510 1517 1518 1518 1515 1509 1508 1510 1511 1513 1515 1516 1518 1523 1525 1526 1526 1527 1527 1526 1526 1525 1523 1521 1521 1520 1520 1521 1521 1521 1522 1522 1522 1522 1522 1521 1520 1520 1521 1521 1521 1521 1521 1521 1521 1522 1522 1522
1504 1514 1521 1517 1516 1513 1509 1509 1512 1512 1513 1515 1516 1518 1520 1523 1525 1526 1527 1527 1527 1526 1525 1524 1523 1522 1522 1522 1522 1523 1523 1524 1524 1524 1524 1524 1523 1523 1523 1523 1523 1523 1523 1523 1523 1523 1523 1523 1523
1505 1517 1515 1511 1510 1511 1510 1510 1512 1514 1515 1516 1517 1519 1521 1523 1525 1526 1526 1527 1527 1527 1526 1525 1524 1524 1523 1524 1524 1525 1525 1526 1526 1526 1526 1526 1526 1526 1525 1525 1525 1525 1525 1524 1524 1524 1524 1524 1524
1505 1511 1510 1509 1509 1510 1511 1512 1512 1513 1517 1517 1517 1519 1521 1523 1525 1526 1527 1527 1527 1527 1527 1527 1526 1525 1525 1525 1526 1526 1527 1527 1527 1528 1528 1528 1528 1528 1527 1527 1527 1526 1526 1526 1526 1525 1525 1525 1526
1507 1508 1508 1509 1509 1510 1511 1512 1513 1513 1516 1516 1517 1518 1521 1523 1524 1526 1526 1527 1527 1528 1528 1528 1528 1527 1527 1527 1528 1528 1528 1529 1529 1529 1529 1529 1529 1529 1529 1529 1529 1528 1528 1527 1527 1527 1527 1527 1527
1508 1509 1509 1510 1510 1511 1512 1513 1514 1515 1516 1517 1518 1520 1521 1523 1525 1526 1527 1528 1528 1528 1528 1528 1529 1529 1529 1529 1529 1529 1529 1530 1530 1531 1531 1531 1531 1531 1531 1530 1530 1530 1529 1529 1528 1528 1528 1528 1528
1508 1509 1510 1510 1511 1511 1512 1514 1515 1516 1517 1518 1519 1520 1521 1523 1525 1526 1527 1528 1528 1529 1529 1529 1529 1530 1530 1530 1530 1530 1531 1531 1531 1532 1532 1532 1532 1532 1532 1532 1532 1531 1531 1530 1530 1530 1529 1529 1529
1508 1511 1512 1511 1511 1512 1513 1517 1516 1516 1517 1518 1519 1521 1522 1523 1524 1525 1526 1527 1528 1528 1529 1529 1530 1530 1530 1531 1531 1531 1532 1532 1532 1533 1533 1533 1533 1533 1533 1533 1533 1532 1532 1532 1531 1531 1531 1531 1531
1510 1516 1520 1513 1510 1511 1516 1523 1516 1516 1517 1518 1519 1520 1521 1523 1524 1525 1526 1526 1527 1528 1529 1529 1530 1530 1530 1531 1531 1532 1532 1532 1533 1533 1533 1533 1534 1534 1534 1533 1533 1533 1533 1533 1532 1532 1532 1532 1532
1517 1523 1522 1515 1510 1510 1515 1519 1515 1515 1516 1517 1518 1519 1520 1521 1523 1524 1525 1525 1526 1527 1528 1529 1529 1530 1530 1531 1532 1532 1533 1533 1533 1533 1534 1534 1534 1534 1534 1534 1534 1534 1534 1533 1533 1533 1533 1533 1533
1522 1521 1519 1517 1510 1511 1515 1516 1514 1514 1514 1515 1516 1518 1519 1520 1521 1522 1523 1524 1525 1526 1527 1528 1529 1529 1530 1531 1531 1532 1533 1533 1533 1533 1533 1534 1534 1534 1534 1534 1534 1534 1534 1534 1534 1534 1534 1534 1534
1511 1515 1517 1513 1508 1511 1514 1514 1513 1512 1513 1514 1515 1516 1517 1518 1519 1521 1522 1523 1524 1525 1526 1527 1527 1528 1529 1530 1530 1531 1532 1532 1533 1533 1533 1534 1534 1534 1534 1534 1534 1534 1535 1535 1535 1534 1534 1534 1534
1509 1515 1516 1512 1507 1510 1514 1514 1510 1510 1510 1511 1512 1513 1514 1516 1518 1519 1520 1521 1522 1523 1524 1525 1526 1527 1528 1529 1530 1530 1531 1532 1533 1533 1533 1534 1534 1534 1534 1534 1534 1534 1535 1535 1535 1535 1535 1535 1535
1509 1513 1514 1514 1509 1509 1513 1518 1514 1510 1509 1510 1511 1511 1512 1513 1514 1516 1517 1519 1520 1521 1522 1523 1525 1526 1527 1528 1529 1530 1531 1531 1532 1532 1533 1533 1533 1533 1534 1534 1534 1534 1534 1534 1535 1535 1535 1535 1535
1512 1505 1506 1509 1517 1523 1518 1531 1517 1511 1509 1508 1508 1509 1509 1510 1512 1513 1515 1516 1518 1519 1521 1522 1523 1525 1526 1527 1527 1528 1529 1530 1530 1531 1532 1532 1533 1533 1533 1534 1534 1534 1534 1534 1534 1535 1535 1535 1535
1505 1501 1504 1507 1515 1522 1520 1528 1522 1512 1511 1508 1506 1506 1507 1508 1509 1511 1512 1514 1516 1518 1519 1520 1522 1523 1524 1525 1526 1527 1528 1529 1529 1530 1531 1531 1532 1532 1532 1533 1533 1533 1533 1533 1534 1534 1534 1534 1534
1500 1504 1508 1514 1521 1531 1520 1526 1524 1514 1507 1504 1503 1503 1504 1505 1507 1509 1511 1513 1514 1516 1518 1519 1520 1521 1523 1523 1524 1525 1526 1527 1528 1528 1529 1530 1530 1531 1531 1532 1532 1532 1532 1532 1533 1533 1533 1533 1533
1504 1518 1531 1533 1538 1533 1517 1521 1518 1504 1500 1499 1500 1501 1502 1504 1505 1507 1509 1510 1512 1514 1516 1517 1518 1519 1520 1521 1522 1524 1524 1525 1526 1526 1527 1528 1528 1529 1529 1530 1530 1530 1531 1531 1532 1532 1532 1532 1532
1506 1516 1532 1539 1539 1532 1518 1519 1510 1499 1497 1496 1497 1499 1501 1503 1504 1505 1507 1509 1511 1512 1514 1515 1516 1517 1518 1520 1521 1522 1522 1523 1524 1524 1525 1525 1526 1527 1528 1528 1529 1529 1529 1530 1530 1530 1530 1530 1530
1507 1513 1514 1526 1527 1532 1526 1514 1504 1498 1497 1497 1498 1499 1500 1501 1503 1504 1506 1507 1509 1510 1512 1513 1514 1515 1517 1517 1518 1519 1520 1521 1522 1522 1523 1524 1524 1525 1526 1526 1527 1527 1528 1528 1528 1528 1528 1528 1529
1501 1507 1518 1526 1533 1536 1525 1519 1514 1502 1499 1498 1498 1497 1498 1500 1502 1503 1504 1506 1507 1508 1510 1511 1512 1513 1514 1515 1516 1517 1518 1518 1519 1520 1521 1521 1522 1523 1524 1524 1525 1525 1525 1526 1526 1526 1526 1527 1527
1504 1507 1513 1523 1526 1534 1533 1522 1497 1496 1495 1496 1496 1496 1497 1498 1500 1501 1503 1504 1506 1507 1508 1509 1510 1511 1512 1513 1514 1514 1515 1516 1517 1518 1518 1519 1520 1521 1521 1522 1522 1522 1523 1523 1524 1524 1524 1524 1524
1499 1503 1510 1522 1524 1525 1528 1518 1491 1491 1491 1492 1493 1495 1496 1497 1498 1500 1501 1503 1504 1505 1506 1507 1508 1509 1509 1510 1511 1512 1513 1514 1515 1515 1516 1517 1517 1518 1519 1519 1519 1520 1520 1521 1521 1521 1521 1521 1521